Location: Lawrence Hall of Science
(37.8785°N, 122.2415°W)
Time: 14:24:09
(UTC-07:00)

Cosmos 2151 - Visible Passes

Search period start: 24 April 2014 00:00
Search period end: 04 May 2014 00:00
Orbit: 587 x 608 km, 82.5° (Epoch: 23 April)

Date Brightness Start Highest point End Pass type
(mag) Time Alt. Az. Time Alt. Az. Time Alt. Az.
24 Apr 5.9 03:21:08 10° E 03:22:13 11° E 03:23:18 10° ENE visible
24 Apr 3.2 04:56:56 27° SW 04:59:05 53° W 05:03:19 10° N visible
25 Apr 5.4 03:31:12 15° ESE 03:32:41 18° E 03:35:34 10° NE visible
25 Apr 3.8 05:07:56 23° WSW 05:09:48 32° WNW 05:13:42 10° NNW visible
26 Apr 4.7 03:42:09 25° ESE 03:43:11 28° E 03:46:52 10° NNE visible
26 Apr 4.5 05:18:52 16° WSW 05:20:35 20° WNW 05:23:49 10° NNW visible
27 Apr 3.8 03:53:03 42° ESE 03:53:44 46° E 03:57:51 10° NNE visible
27 Apr 5.0 05:29:46 11° W 05:31:24 13° WNW 05:33:24 10° NW visible
28 Apr 3.0 04:03:55 70° SSE 04:04:20 79° E 04:08:38 10° N visible
29 Apr 2.9 04:14:45 61° W 04:14:58 62° W 04:19:14 10° N visible
30 Apr 5.5 02:48:50 15° E 02:48:50 15° E 02:51:06 10° NE visible
30 Apr 3.6 04:25:33 37° W 04:25:39 37° WNW 04:29:39 10° N visible
01 May 5.0 02:59:36 24° ENE 02:59:36 24° ENE 03:02:33 10° NE visible
01 May 4.3 04:36:19 23° WNW 04:36:23 23° WNW 04:39:51 10° NNW visible
02 May 4.4 03:10:21 36° ENE 03:10:21 36° ENE 03:13:35 10° NNE visible
02 May 4.9 04:47:04 15° WNW 04:47:10 15° WNW 04:49:38 10° NW visible
03 May 3.8 03:21:04 50° NE 03:21:04 50° NE 03:24:24 10° NNE visible
